Wind_Speed
3 4 7 10 14 15 17 18 21 20 20 19 20 19 17 14 14 16 16 17 18 18 18 19 19 17 17 18 18 16 9 9
3 4 4 7 9 10 12 17 19 18 18 18 19 19 17 14 13 14 15 16 17 18 17 18 17 15 17 18 17 18 13 7
2 2 2 4 6 7 11 15 18 18 17 18 18 18 16 13 12 13 16 16 16 17 18 18 17 14 12 13 16 17 15 8
1 2 3 3 4 8 12 13 15 17 17 19 19 18 15 13 14 16 17 15 15 17 19 19 18 14 13 15 17 17 11 10
6 5 5 4 5 7 10 12 14 16 18 19 20 18 13 13 15 17 17 16 17 19 21 21 19 16 17 19 17 8 7 9
6 3 2 3 5 6 8 12 15 17 20 21 22 19 15 15 17 19 18 17 18 20 22 21 20 19 18 17 12 7 8 9
5 2 1 2 4 7 10 13 15 18 21 22 23 20 17 15 17 19 17 17 18 20 22 22 21 20 19 16 10 4 6 6
6 4 2 4 6 8 10 13 16 18 22 23 23 21 17 15 17 19 19 18 18 19 21 20 20 20 20 14 7 8 7 7
7 3 1 3 5 6 10 13 17 18 22 22 23 21 18 16 17 18 19 18 17 19 19 20 20 21 18 8 8 6 7 3
7 4 2 2 5 7 6 11 15 18 19 21 23 21 21 18 19 19 18 16 18 20 22 21 22 24 20 12 4 5 3 1
6 4 3 1 4 6 8 10 13 15 17 19 22 23 22 19 19 19 19 18 19 21 23 24 24 26 23 15 1 5 4 2
7 6 3 2 3 5 7 8 10 11 13 17 19 22 23 22 21 23 22 22 21 23 25 26 29 29 23 12 3 4 5 8
6 3 1 3 4 6 6 4 6 7 11 15 17 19 20 20 21 24 26 24 25 26 26 28 32 32 26 18 3 9 11 12
6 5 2 3 5 8 6 4 2 6 8 13 11 11 12 13 17 22 25 25 25 26 26 28 31 26 25 17 12 6 5 11
4 4 2 4 6 6 4 6 6 7 9 11 10 11 13 14 18 22 26 25 25 24 25 28 30 20 17 16 8 7 27 5
3 2 3 4 7 7 6 4 4 6 9 10 11 12 13 16 19 23 24 23 21 23 24 27 24 18 16 14 14 15 11 14
3 2 2 5 8 8 8 5 4 6 9 10 9 12 17 20 22 24 22 19 20 23 26 27 18 17 14 15 17 16 13 19
4 2 2 5 8 10 10 7 7 9 11 10 11 13 16 19 21 21 19 20 22 25 28 21 16 15 11 13 14 15 16 16
4 1 3 7 9 10 10 10 9 10 11 13 15 16 16 18 19 22 22 22 25 29 23 20 17 15 12 11 12 13 14 15
3 1 4 7 10 9 10 10 11 10 12 14 14 15 16 17 19 22 21 24 31 21 22 21 17 12 8 9 13 15 14 13
Wind_Direction
124 59 37 32 17 13 17 359 357 8 7 2 3 358 358 2 9 12 14 9 7 7 5 359 359 355 355 353 351 345 329 309
110 57 38 33 17 20 358 346 345 2 1 357 2 355 354 357 7 8 11 5 8 8 3 359 355 352 360 355 347 339 343 292
97 26 23 37 12 6 327 338 340 352 1 358 0 355 353 353 5 1 2 357 2 1 0 354 350 352 352 350 341 343 346 325
179 263 259 313 350 312 322 335 340 347 359 359 1 358 356 352 350 360 358 359 354 354 354 351 351 345 331 333 340 341 352 348
173 199 223 252 285 315 323 335 342 346 0 360 3 360 356 348 352 1 357 356 351 349 353 352 353 343 338 336 342 355 350 344
202 196 212 252 301 324 340 343 347 352 1 359 2 359 355 350 353 0 356 354 351 352 352 350 351 354 345 341 345 341 347 14
209 242 275 314 329 356 359 353 353 357 358 359 359 357 355 350 354 1 359 354 353 352 352 352 355 359 355 347 348 340 349 23
216 244 314 353 355 5 359 352 356 356 355 358 355 357 355 353 356 358 0 356 350 350 355 356 355 360 3 1 24 11 23 49
217 215 11 7 9 359 2 353 350 350 349 351 352 355 356 358 354 353 358 354 344 348 355 355 354 0 5 20 20 48 86 41
231 237 305 355 20 6 357 342 339 339 341 344 346 354 356 1 358 353 356 350 342 348 353 354 353 353 359 4 2 74 70 189
230 237 259 315 11 342 333 327 328 335 336 337 344 352 356 3 4 360 358 353 344 347 349 352 351 350 352 356 207 72 56 70
209 220 230 285 330 312 309 309 330 330 335 343 349 353 353 358 358 356 356 356 348 346 348 349 350 351 350 359 225 212 10 343
216 229 219 285 315 326 331 313 323 324 341 349 357 353 351 351 348 346 349 352 348 346 345 348 351 352 352 2 344 295 246 331
205 233 259 337 341 339 334 325 305 327 338 333 350 351 344 338 340 341 342 341 343 345 347 349 352 357 3 2 348 356 267 306
210 251 326 352 348 346 311 274 270 285 321 336 340 340 339 339 339 340 336 335 338 344 348 348 350 356 8 18 348 330 333 317
209 231 312 343 347 353 354 341 327 335 332 329 323 322 324 325 329 332 333 332 337 344 343 342 343 346 352 2 355 337 326 321
198 263 303 344 354 9 8 360 347 325 317 322 315 315 319 322 327 333 336 340 342 341 340 339 336 339 336 345 335 337 331 322
203 255 358 2 4 7 8 355 340 324 332 346 341 331 327 329 337 340 344 345 343 340 335 332 327 327 331 329 330 328 322 323
191 243 21 10 5 1 2 358 352 341 352 354 345 343 341 344 345 350 350 347 340 335 334 331 327 327 326 323 323 322 318 311
188 112 3 4 3 1 352 352 1 354 355 353 350 353 353 354 346 349 349 343 338 341 338 336 330 330 333 325 330 325 317 310
Height
1563 1562 1560 1559 1557 1555 1553 1551 1549 1548 1545 1542 1541 1537 1534 1531 1528 1526 1524 1520 1517 1514 1511 1506 1503 1500 1497 1495 1492 1488 1486 1484
1561 1561 1560 1559 1558 1556 1554 1552 1550 1548 1545 1542 1540 1537 1533 1530 1527 1525 1522 1518 1515 1512 1509 1504 1501 1498 1496 1493 1490 1486 1484 1482
1561 1560 1559 1558 1556 1555 1555 1553 1550 1548 1545 1542 1540 1536 1532 1529 1526 1523 1520 1516 1513 1510 1506 1503 1500 1497 1494 1490 1488 1485 1482 1480
1560 1560 1558 1557 1556 1556 1555 1553 1550 1548 1545 1542 1538 1535 1531 1528 1526 1523 1520 1516 1512 1508 1505 1501 1498 1494 1491 1488 1486 1483 1481 1479
1561 1561 1560 1559 1558 1557 1555 1552 1550 1548 1545 1541 1538 1534 1531 1528 1525 1522 1518 1515 1511 1507 1503 1499 1496 1493 1490 1486 1483 1481 1479 1477
1560 1560 1560 1559 1558 1557 1555 1551 1549 1546 1544 1541 1537 1534 1530 1526 1524 1521 1517 1513 1510 1506 1502 1498 1494 1491 1488 1484 1482 1480 1479 1476
1557 1558 1559 1558 1557 1557 1554 1551 1549 1546 1543 1540 1537 1533 1529 1526 1523 1520 1516 1512 1508 1505 1502 1498 1494 1490 1487 1483 1481 1479 1478 1476
1555 1557 1557 1557 1556 1556 1554 1550 1548 1546 1543 1539 1536 1532 1529 1525 1522 1519 1516 1512 1509 1504 1501 1498 1494 1490 1487 1483 1481 1479 1478 1477
1554 1555 1556 1555 1555 1554 1552 1550 1546 1545 1542 1539 1536 1533 1528 1525 1522 1518 1515 1512 1508 1505 1501 1498 1494 1491 1487 1484 1481 1479 1476 1475
1552 1553 1554 1554 1552 1552 1552 1549 1546 1544 1542 1539 1536 1533 1529 1526 1523 1519 1515 1511 1507 1504 1500 1496 1492 1489 1486 1483 1481 1478 1476 1474
1550 1551 1552 1551 1551 1551 1550 1549 1546 1544 1541 1539 1536 1533 1529 1526 1523 1520 1516 1511 1507 1503 1499 1495 1491 1487 1484 1481 1479 1477 1475 1473
1548 1550 1550 1550 1550 1551 1550 1548 1546 1543 1541 1538 1535 1533 1529 1526 1523 1520 1516 1512 1506 1502 1498 1495 1490 1487 1482 1479 1477 1475 1473 1471
1548 1549 1548 1549 1550 1550 1549 1548 1545 1543 1541 1538 1535 1533 1529 1527 1523 1521 1517 1512 1507 1502 1498 1494 1488 1483 1479 1476 1475 1472 1471 1469
1548 1548 1548 1549 1549 1548 1547 1546 1545 1543 1541 1538 1534 1532 1527 1524 1520 1518 1515 1510 1506 1501 1497 1494 1490 1485 1480 1475 1472 1471 1469 1466
1547 1547 1548 1548 1547 1547 1546 1545 1543 1541 1539 1537 1535 1531 1528 1523 1521 1517 1514 1509 1504 1501 1497 1494 1489 1488 1484 1481 1477 1475 1470 1466
1545 1547 1547 1547 1546 1545 1544 1542 1541 1538 1537 1536 1534 1532 1528 1523 1519 1516 1512 1508 1505 1501 1497 1495 1490 1486 1484 1483 1481 1478 1473 1465
1545 1547 1547 1546 1545 1544 1542 1541 1539 1537 1536 1532 1531 1529 1526 1522 1518 1515 1510 1506 1504 1499 1496 1493 1489 1486 1482 1480 1478 1476 1474 1471
1546 1546 1546 1545 1544 1543 1541 1540 1538 1537 1534 1530 1529 1528 1523 1521 1516 1513 1509 1505 1502 1498 1495 1491 1487 1484 1480 1478 1476 1474 1471 1469
1546 1546 1545 1545 1543 1542 1541 1540 1537 1537 1533 1530 1529 1526 1522 1518 1515 1512 1508 1505 1501 1495 1492 1489 1484 1480 1477 1475 1474 1472 1469 1467
1546 1545 1544 1544 1543 1542 1542 1539 1536 1536 1532 1529 1527 1523 1521 1517 1515 1512 1509 1505 1499 1493 1490 1485 1481 1476 1475 1473 1471 1469 1467 1464